STARLINK-34748

Last updated on Tue Aug 19 2025 00:02:05 GMT+0000 (Coordinated Universal Time)

1 64848U 25152G 25230.58335648 .00038808 00000+0 99220-3 0 9990 2 64848 97.6039 84.1595 0001920 94.2879 215.1503 15.39343036 5424
UTC large
Height (km)
Speed (km/s)
/
Latitude / Longitude
Inclination (degrees)
Orbital Period (minutes)
Azimuth
Elevation
Range (km)
Doppler Factor

Next 0 passes for location: London (51.5072 / 0.1276)

Sorry there are no passes over London.
STARLINK-34748